Overview Statistics Trail Chart Weather Telemetry Raw packets
 

This is the latest recevied weather packets stored in our database for station/object HI3RRR-13. If no packets are shown the sender has not sent any weather packets the latest 10 day(s).

<< 23 24 25 26 27 28 29 >>
Time Temp. Humidity Pressure Rain* Wind** Luminosity Snow
1788293744 32.78° C 58% 1013 hPa 0.25 mm - - -
1788293144 32.78° C 58% 1013 hPa 0 mm - - -
1788292543 34.44° C 52% 1013 hPa 0 mm - - -
1788291942 34.44° C 52% 1013 hPa 0 mm - - -
1788291341 34.44° C 52% 1013 hPa 0 mm - - -
1788290740 34.44° C 53% 1013 hPa 0 mm - - -
1788290139 34.44° C 53% 1013 hPa 0 mm - - -
1788289539 34.44° C 55% 1013 hPa 0 mm - - -
1788288938 35° C 62% 1013 hPa 0 mm - - -
1788288337 35° C 62% 1013 hPa 0 mm - - -
1788287737 35° C 62% 1013 hPa 0 mm - - -
1788287136 35° C 62% 1014 hPa 0 mm - - -
1788286548 23.33° C 10% - 0 mm - - -
1788285935 32.78° C 60% 1013 hPa 0 mm - - -
1788285334 32.78° C 60% 1013 hPa 0 mm - - -
1788284734 32.78° C 60% 1014 hPa 0 mm - - -
1788284133 32.78° C 60% 1014 hPa 0 mm - - -
1788283532 33.33° C 61% 1015 hPa 0 mm - - -
1788282932 32.78° C 60% 1015 hPa 0 mm - - -
1788282331 34.44° C 64% 1015 hPa 0 mm - - -
1788281731 35° C 64% 1015 hPa 0 mm - - -
1788281130 31.67° C 62% 1015 hPa 0 mm - - -
1788280529 31.67° C 64% 1015 hPa 0 mm - - -
1788279928 31.67° C 64% 1016 hPa 0 mm - - -
1788279328 31.67° C 64% 1015 hPa 0 mm - - -

* Rain latest hour (hover to see other rain measurements)
** Current wind speed in m/s (hover to see current wind gust speed)